datetime,flow
2013-07-12,56.73
2013-07-13,69.76
2013-07-14,65.12
2013-07-15,84.99
2013-07-16,66.46
2013-07-17,65.48
2013-07-18,47.74
2013-07-19,66.86
2013-07-20,75.21
2013-07-21,79.11
2013-07-22,76.02
2013-07-23,68.22
2013-07-24,74.83
2013-07-25,81.81
2013-07-26,74.82
2013-07-27,79.78
2013-07-28,98.36
2013-07-29,99.56
2013-07-30,94.05
2013-07-31,112.81
2013-08-01,95.91
2013-08-02,95.31
2013-08-03,84.66
2013-08-04,79.26
2013-08-05,83.25
2013-08-06,83.7
2013-08-07,95.11
2013-08-08,98.67
2013-08-09,85.35
2013-08-10,88.29
2013-08-11,89.27
2013-08-12,94.63
2013-08-13,70.14
2013-08-14,65.6
2013-08-15,59.22
2013-08-16,62.01
2013-08-17,69.61
2013-08-18,65.02
2013-08-19,73.02
2013-08-20,87.01
2013-08-21,71.19
2013-08-22,50.03
2013-08-23,100.13
2013-08-24,88.59
2013-08-25,89.06
2013-08-26,104.52
2013-08-27,94.43
2013-08-28,90.25
2013-08-29,81.11
2013-08-30,85.85
2013-08-31,83.27
2013-09-01,88.55
2013-09-02,80.43
2013-09-03,72.67
2013-09-04,65.6
2013-09-05,70.96
2013-09-06,72.85
2013-09-07,80.62
2013-09-08,62.16
2013-09-09,37.17
2013-09-10,37.75
2013-09-11,33.78
2013-09-12,56.64
2013-09-13,61.1
2013-09-14,58.76
2013-09-15,67.39
2013-09-16,42.58
2013-09-17,60.05
2013-09-18,71.65
2013-09-19,88.59
2013-09-20,93.31
2013-09-21,134.17
2013-09-22,117.61
2013-09-23,124.21
2013-09-24,140.61
2013-09-25,114.31
2013-09-26,23.9
2013-09-27,12.03
2013-09-28,11.57
2013-09-29,60.96
2013-09-30,158.23
2013-10-01,122.26
2013-10-02,120.72
2013-10-03,109.5
2013-10-04,80.88
2013-10-05,86.03
2013-10-06,67.17
2013-10-07,74.7
2013-10-08,69.91
2013-10-09,72.04
2013-10-10,69.1
2013-10-11,54.61
2013-10-12,73.99
2013-10-13,75.49
2013-10-14,72.75
2013-10-15,52.88
2013-10-16,50.05
2013-10-17,69.39
2013-10-18,66.43
2013-10-19,66.07
2013-10-20,52.8
2013-10-21,99.74
2013-10-22,126.98
2013-10-23,118.36
2013-10-24,118.49
2013-10-25,118.45
2013-10-26,75.31
2013-10-27,49.39
2013-10-28,52.26
2013-10-29,43.51
2013-10-30,49.95
2013-10-31,45.04
2013-11-01,43.78
2013-11-02,49.12
2013-11-03,43.9
2013-11-04,41.7
2013-11-05,50.44
2013-11-06,42.66
2013-11-07,42.35
2013-11-08,44.76
2013-11-09,41.7
2013-11-10,48.44
2013-11-11,41.28
2013-11-12,47.11
2013-11-13,41.93
2013-11-14,48.17
2013-11-15,46.26
2013-11-16,48.56
2013-11-17,50.12
2013-11-18,48.68
2013-11-19,47.64
2013-11-20,59.22
2013-11-21,47.63
2013-11-22,44.1
2013-11-23,42.14
2013-11-24,44.28
2013-11-25,45.35
2013-11-26,57.5
2013-11-27,100.66
2013-11-28,83.47
2013-11-29,45.65
2013-11-30,43.77
2013-12-01,42.13
2013-12-02,51.14
2013-12-03,63.49
2013-12-04,38.3
2013-12-05,38.33
2013-12-06,46.69
2013-12-07,44.27
2013-12-08,39.75
2013-12-09,31.64
2013-12-10,43.28
2013-12-11,34.83
2013-12-12,26.44
2013-12-13,39.94
2013-12-14,36.99
2013-12-15,35.81
2013-12-16,42.1
2013-12-17,40.94
2013-12-18,36.93
2013-12-19,46.35
2013-12-20,45.24
2013-12-21,43.91
2013-12-22,51.0
2013-12-23,36.92
2013-12-24,39.59
2013-12-25,41.06
2013-12-26,45.1
2013-12-27,41.54
2013-12-28,42.18
2013-12-29,41.49
2013-12-30,42.08
2013-12-31,41.93
2014-01-01,40.07
2014-01-02,36.06
2014-01-03,39.65
2014-01-04,46.67
2014-01-05,39.98
2014-01-06,42.64
2014-01-07,49.37
2014-01-08,39.07
2014-01-09,51.52
2014-01-10,49.86
2014-01-11,49.86
2014-01-12,51.67
2014-01-13,46.27
2014-01-14,44.92
2014-01-15,45.65
2014-01-16,43.42
2014-01-17,48.13
2014-01-18,45.97
2014-01-19,44.64
2014-01-20,41.17
2014-01-21,46.13
2014-01-22,41.6
2014-01-23,51.39
2014-01-24,41.63
2014-01-25,39.54
2014-01-26,49.95
2014-01-27,47.27
2014-01-28,50.69
2014-01-29,52.31
2014-01-30,56.41
2014-01-31,51.17
2014-02-01,51.76
2014-02-02,47.74
2014-02-03,44.58
2014-02-04,49.91
2014-02-05,48.45
2014-02-06,44.12
2014-02-07,55.37
2014-02-08,61.95
2014-02-09,54.25
2014-02-10,56.15
2014-02-11,56.85
2014-02-12,76.86
2014-02-13,84.4
2014-02-14,106.07
2014-02-15,169.72
2014-02-16,233.79
2014-02-17,152.98
2014-02-18,141.24
2014-02-19,118.16
2014-02-20,104.45
2014-02-21,91.38
2014-02-22,87.6
2014-02-23,83.91
2014-02-24,85.49
2014-02-25,79.26
2014-02-26,66.24
2014-02-27,75.67
2014-02-28,23.58
2014-03-01,3.4
2014-03-02,1.65
2014-03-03,3.32
2014-03-04,1.78
2014-03-05,63.09
2014-03-06,82.14
2014-03-07,60.67
2014-03-08,52.96
2014-03-09,66.61
2014-03-10,120.95
2014-03-11,321.54
2014-03-12,263.23
2014-03-13,136.54
2014-03-14,99.49
2014-03-15,87.85
2014-03-16,64.76
2014-03-17,77.8
2014-03-18,59.53
2014-03-19,58.51
2014-03-20,46.62
2014-03-21,11.12
2014-03-22,17.12
2014-03-23,19.15
2014-03-24,35.79
2014-03-25,57.04
2014-03-26,58.05
2014-03-27,57.86
2014-03-28,46.9
2014-03-29,56.82
2014-03-30,72.32
2014-03-31,49.93
2014-04-01,54.82
2014-04-02,28.09
2014-04-03,17.17
2014-04-04,22.96
2014-04-05,23.23
2014-04-06,28.44
2014-04-07,37.8
2014-04-08,58.02
2014-04-09,43.41
2014-04-10,51.28
2014-04-11,34.82
2014-04-12,47.88
2014-04-13,42.39
2014-04-14,44.32
2014-04-15,48.78
2014-04-16,41.47
2014-04-17,48.11
2014-04-18,49.33
2014-04-19,32.34
2014-04-20,33.36
2014-04-21,19.78
2014-04-22,23.14
2014-04-23,43.79
2014-04-24,42.2
2014-04-25,59.2
2014-04-26,57.2
2014-04-27,77.66
2014-04-28,72.1
2014-04-29,69.1
2014-04-30,35.99
2014-05-01,51.85
2014-05-02,54.19
2014-05-03,59.64
2014-05-04,74.69
2014-05-05,82.01
2014-05-06,55.91
2014-05-07,67.15
2014-05-08,72.48
2014-05-09,64.88
2014-05-10,89.02
2014-05-11,67.2
2014-05-12,59.7
2014-05-13,26.7
2014-05-14,29.38
2014-05-15,25.31
2014-05-16,26.13
2014-05-17,42.21
2014-05-18,54.98
2014-05-19,79.02
2014-05-20,84.32
2014-05-21,86.91
2014-05-22,79.91
2014-05-23,81.99
2014-05-24,61.58
2014-05-25,68.82
2014-05-26,72.2
2014-05-27,83.91
2014-05-28,85.5
2014-05-29,62.03
2014-05-30,55.84
2014-05-31,55.25
2014-06-01,59.12
2014-06-02,35.63
2014-06-03,53.43
2014-06-04,49.4
2014-06-05,53.82
2014-06-06,40.86
2014-06-07,35.82
2014-06-08,45.57
2014-06-09,64.68
2014-06-10,55.84
2014-06-11,53.92
2014-06-12,36.11
2014-06-13,53.85
2014-06-14,53.81
2014-06-15,47.43
2014-06-16,49.38
2014-06-17,41.08
2014-06-18,38.24
2014-06-19,46.25
2014-06-20,48.28
2014-06-21,46.08
2014-06-22,43.14
2014-06-23,26.39
2014-06-24,22.99
2014-06-25,21.86
2014-06-26,49.18
2014-06-27,67.06
2014-06-28,56.76
2014-06-29,56.3
2014-06-30,53.71
2014-07-01,46.65
2014-07-02,45.03
2014-07-03,32.97
2014-07-04,21.86
2014-07-05,23.55
2014-07-06,48.92
2014-07-07,37.41
2014-07-08,33.32
2014-07-09,21.7
2014-07-10,40.89
2014-07-11,31.57
2014-07-12,47.25
2014-07-13,56.43
2014-07-14,56.93
2014-07-15,41.8
2014-07-16,47.24
2014-07-17,57.04
2014-07-18,56.72
2014-07-19,56.24
2014-07-20,48.61
2014-07-21,69.38
2014-07-22,74.17
2014-07-23,66.3
2014-07-24,60.3
2014-07-25,46.27
2014-07-26,36.63
2014-07-27,29.78
2014-07-28,38.0
2014-07-29,31.21
2014-07-30,31.68
2014-07-31,36.55
2014-08-01,24.39
2014-08-02,13.74
2014-08-03,15.64
2014-08-04,43.06
2014-08-05,62.02
2014-08-06,74.42
2014-08-07,58.93
2014-08-08,48.08
2014-08-09,54.73
2014-08-10,62.65
2014-08-11,74.22
2014-08-12,75.82
2014-08-13,77.1
2014-08-14,80.47
2014-08-15,59.4
2014-08-16,59.32
2014-08-17,57.34
2014-08-18,48.38
2014-08-19,33.53
2014-08-20,49.88
2014-08-21,37.84
2014-08-22,45.43
2014-08-23,44.81
2014-08-24,33.52
2014-08-25,44.74
2014-08-26,29.61
2014-08-27,52.0
2014-08-28,2.22
2014-08-29,1.07
2014-08-30,32.89
2014-08-31,62.21
2014-09-01,58.82
2014-09-02,47.59
2014-09-03,51.88
2014-09-04,28.53
2014-09-05,31.14
2014-09-06,28.66
2014-09-07,40.04
2014-09-08,34.42
2014-09-09,43.22
2014-09-10,38.46
2014-09-11,32.88
2014-09-12,42.35
2014-09-13,50.28
2014-09-14,43.49
2014-09-15,47.71
2014-09-16,36.43
2014-09-17,46.3
2014-09-18,57.39
2014-09-19,38.98
2014-09-20,36.94
2014-09-21,37.34
2014-09-22,55.25
2014-09-23,60.85
2014-09-24,62.43
2014-09-25,86.4
2014-09-26,67.21
2014-09-27,78.1
2014-09-28,62.32
2014-09-29,57.0
2014-09-30,69.68
2014-10-01,59.73
2014-10-02,65.13
2014-10-03,56.49
2014-10-04,69.95
2014-10-05,54.65
2014-10-06,64.77
2014-10-07,66.58
2014-10-08,60.98
2014-10-09,62.81
2014-10-10,52.45
2014-10-11,55.33
2014-10-12,60.42
2014-10-13,49.22
2014-10-14,63.44
2014-10-15,80.97
2014-10-16,39.95
2014-10-17,18.49
2014-10-18,24.86
2014-10-19,13.58
2014-10-20,17.17
2014-10-21,28.83
2014-10-22,33.63
2014-10-23,55.66
2014-10-24,58.38
2014-10-25,60.11
2014-10-26,55.91
2014-10-27,53.83
2014-10-28,56.77
2014-10-29,61.64
2014-10-30,68.08
2014-10-31,72.91
2014-11-01,78.44
2014-11-02,63.9
2014-11-03,21.33
2014-11-04,0.36
2014-11-05,0.43
2014-11-06,0.0
2014-11-07,0.0
2014-11-08,0.0
2014-11-09,0.0
2014-11-10,0.0
2014-11-11,0.0
2014-11-12,0.0
2014-11-13,0.0
2014-11-14,0.0
2014-11-15,0.0
2014-11-16,0.0
2014-11-17,0.0
2014-11-18,0.0
2014-11-19,0.0
2014-11-20,0.0
2014-11-21,0.0
2014-11-22,0.0
2014-11-23,0.0
2014-11-24,0.0
2014-11-25,0.0
2014-11-26,0.0
2014-11-27,0.0
2014-11-28,0.0
2014-11-29,0.0
2014-11-30,27.03
2014-12-01,44.32
2014-12-02,43.32
2014-12-03,42.43
2014-12-04,42.61
2014-12-05,41.93
2014-12-06,41.69
2014-12-07,42.36
2014-12-08,42.96
2014-12-09,43.31
2014-12-10,46.24
2014-12-11,109.86
2014-12-12,83.67
2014-12-13,99.43
2014-12-14,133.33
2014-12-15,117.09
2014-12-16,105.92
2014-12-17,88.75
2014-12-18,92.63
2014-12-19,122.86
2014-12-20,139.59
2014-12-21,241.2
2014-12-22,685.83
2014-12-23,437.15
2014-12-24,264.49
2014-12-25,197.27
2014-12-26,177.7
2014-12-27,136.14
2014-12-28,112.07
2014-12-29,98.12
2014-12-30,73.05
2014-12-31,70.43
2015-01-01,67.15
2015-01-02,70.14
2015-01-03,67.7
2015-01-04,67.41
2015-01-05,64.88
2015-01-06,62.77
2015-01-07,59.43
2015-01-08,58.42
2015-01-09,58.1
2015-01-10,67.16
2015-01-11,52.48
2015-01-12,66.45
2015-01-13,59.38
2015-01-14,63.4
2015-01-15,58.17
2015-01-16,69.06
2015-01-17,56.89
2015-01-18,84.15
2015-01-19,79.84
2015-01-20,95.26
2015-01-21,83.33
2015-01-22,61.06
2015-01-23,67.44
2015-01-24,69.02
2015-01-25,61.98
2015-01-26,58.07
2015-01-27,68.61
2015-01-28,62.57
2015-01-29,57.15
2015-01-30,56.97
2015-01-31,59.82
2015-02-01,52.84
2015-02-02,71.13
2015-02-03,73.73
2015-02-04,79.39
2015-02-05,84.39
2015-02-06,112.27
2015-02-07,144.72
2015-02-08,170.86
2015-02-09,201.84
2015-02-10,143.91
2015-02-11,110.0
2015-02-12,96.32
2015-02-13,85.7
2015-02-14,81.75
2015-02-15,74.18
2015-02-16,69.98
2015-02-17,63.77
2015-02-18,66.88
2015-02-19,64.28
2015-02-20,62.48
2015-02-21,68.12
2015-02-22,59.12
2015-02-23,54.84
2015-02-24,53.5
2015-02-25,57.48
2015-02-26,59.76
2015-02-27,59.24
2015-02-28,63.48
2015-03-01,52.35
2015-03-02,59.46
2015-03-03,55.78
2015-03-04,51.6
2015-03-05,52.87
2015-03-06,54.45
2015-03-07,58.05
2015-03-08,51.09
2015-03-09,54.73
2015-03-10,55.31
2015-03-11,60.09
2015-03-12,56.06
2015-03-13,44.05
2015-03-14,17.67
2015-03-15,5.58
2015-03-16,34.4
2015-03-17,61.04
2015-03-18,49.51
2015-03-19,52.59
2015-03-20,45.25
2015-03-21,44.76
2015-03-22,51.01
2015-03-23,30.37
2015-03-24,76.03
2015-03-25,40.66
2015-03-26,35.06
2015-03-27,31.35
2015-03-28,41.43
2015-03-29,34.01
2015-03-30,27.16
2015-03-31,37.19
2015-04-01,24.55
2015-04-02,30.54
2015-04-03,20.31
2015-04-04,18.99
2015-04-05,25.22
2015-04-06,38.26
2015-04-07,26.99
2015-04-08,47.28
2015-04-09,44.14
2015-04-10,67.52
2015-04-11,47.91
2015-04-12,44.92
2015-04-13,31.85
2015-04-14,39.0
2015-04-15,28.12
2015-04-16,1.12
2015-04-17,2.91
2015-04-18,-7.36
2015-04-19,2.18
2015-04-20,3.17
2015-04-21,2.58
2015-04-22,3.91
2015-04-23,2.09
2015-04-24,1.54
2015-04-25,2.88
2015-04-26,4.47
2015-04-27,-0.93
2015-04-28,5.89
2015-04-29,5.2
2015-04-30,12.52
2015-05-01,7.68
2015-05-02,10.93
2015-05-03,7.35
2015-05-04,5.14
2015-05-05,29.86
2015-05-06,31.11
2015-05-07,30.68
2015-05-08,34.57
2015-05-09,22.74
2015-05-10,23.19
2015-05-11,51.49
2015-05-12,45.43
2015-05-13,33.26
2015-05-14,37.07
2015-05-15,35.07
2015-05-16,41.5
2015-05-17,56.71
2015-05-18,59.96
2015-05-19,56.4
2015-05-20,65.02
2015-05-21,55.67
2015-05-22,56.07
2015-05-23,55.38
2015-05-24,63.53
2015-05-25,56.4
2015-05-26,43.28
2015-05-27,37.72
2015-05-28,37.66
2015-05-29,31.28
2015-05-30,37.84
2015-05-31,33.14
2015-06-01,36.0
2015-06-02,28.81
2015-06-03,23.61
2015-06-04,27.76
2015-06-05,32.43
2015-06-06,33.63
2015-06-07,37.56
2015-06-08,34.68
2015-06-09,37.21
2015-06-10,36.81
2015-06-11,43.37
2015-06-12,40.59
2015-06-13,49.07
2015-06-14,48.66
2015-06-15,43.2
2015-06-16,39.56
2015-06-17,27.24
2015-06-18,24.37
2015-06-19,43.86
2015-06-20,39.45
2015-06-21,24.16
2015-06-22,16.65
2015-06-23,40.21
2015-06-24,39.68
2015-06-25,40.4
2015-06-26,40.11
2015-06-27,46.0
2015-06-28,33.21
2015-06-29,51.35
2015-06-30,46.66
2015-07-01,58.43
2015-07-02,45.61
2015-07-03,57.06
2015-07-04,53.98
2015-07-05,60.32
2015-07-06,55.11
2015-07-07,39.94
2015-07-08,16.07
2015-07-09,36.9
2015-07-10,70.11
2015-07-11,61.76
2015-07-12,71.27
2015-07-13,80.73
2015-07-14,59.57
2015-07-15,55.63
2015-07-16,44.63
2015-07-17,46.45
2015-07-18,33.47
2015-07-19,27.31
2015-07-20,58.16
2015-07-21,71.05
2015-07-22,65.72
2015-07-23,46.14
2015-07-24,34.22
2015-07-25,35.92
2015-07-26,51.4
2015-07-27,56.81
2015-07-28,66.23
2015-07-29,47.77
2015-07-30,50.67
2015-07-31,39.43
2015-08-01,36.97
2015-08-02,55.01
2015-08-03,44.21
2015-08-04,52.65
2015-08-05,73.53
2015-08-06,60.63
2015-08-07,57.38
2015-08-08,65.52
2015-08-09,61.63
2015-08-10,57.31
2015-08-11,63.97
2015-08-12,47.68
2015-08-13,34.15
2015-08-14,37.6
2015-08-15,36.02
2015-08-16,35.05
2015-08-17,55.34
2015-08-18,49.91
2015-08-19,41.71
2015-08-20,41.15
2015-08-21,47.06
2015-08-22,53.88
2015-08-23,71.83
2015-08-24,66.23
2015-08-25,63.83
2015-08-26,65.76
2015-08-27,69.59
2015-08-28,65.51
2015-08-29,68.26
2015-08-30,60.2
2015-08-31,56.64
2015-09-01,60.97
2015-09-02,58.2
2015-09-03,57.77
2015-09-04,58.52
2015-09-05,60.33
2015-09-06,51.21
2015-09-07,60.64
2015-09-08,52.39
2015-09-09,58.38
2015-09-10,74.0
2015-09-11,64.66
2015-09-12,66.67
2015-09-13,69.0
2015-09-14,70.05
2015-09-15,74.77
2015-09-16,80.08
2015-09-17,90.47
2015-09-18,81.68
2015-09-19,67.7
2015-09-20,80.47
2015-09-21,76.33
2015-09-22,67.14
2015-09-23,60.18
2015-09-24,60.83
2015-09-25,51.9
2015-09-26,50.76
2015-09-27,57.76
2015-09-28,44.05
2015-09-29,50.19
2015-09-30,47.9
2015-10-01,70.25
2015-10-02,58.38
2015-10-03,75.8
2015-10-04,42.96
2015-10-05,58.86
2015-10-06,58.19
2015-10-07,62.74
2015-10-08,70.14
2015-10-09,77.75
2015-10-10,54.54
2015-10-11,64.85
2015-10-12,53.38
2015-10-13,65.82
2015-10-14,63.3
2015-10-15,72.23
2015-10-16,75.83
2015-10-17,90.65
2015-10-18,64.0
2015-10-19,59.49
2015-10-20,56.29
2015-10-21,40.68
2015-10-22,45.95
2015-10-23,43.15
2015-10-24,29.75
2015-10-25,19.16
2015-10-26,25.86
2015-10-27,27.59
2015-10-28,41.73
2015-10-29,38.69
2015-10-30,46.22
2015-10-31,90.83
2015-11-01,86.21
2015-11-02,75.69
2015-11-03,63.81
2015-11-04,53.85
2015-11-05,21.33
2015-11-06,1.73
2015-11-07,0.97
2015-11-08,1.0
2015-11-09,1.0
2015-11-10,1.0
2015-11-11,1.0
2015-11-12,1.0
2015-11-13,1.0
2015-11-14,1.0
2015-11-15,1.0
2015-11-16,1.0
2015-11-17,1.0
2015-11-18,1.0
2015-11-19,1.0
2015-11-20,1.0
2015-11-21,1.0
2015-11-22,1.0
2015-11-23,21.02
2015-11-24,83.48
2015-11-25,65.16
2015-11-26,10.41
2015-11-27,17.97
2015-11-28,14.66
2015-11-29,10.01
2015-11-30,12.83
2015-12-01,18.83
2015-12-02,31.41
2015-12-03,114.84
2015-12-04,48.84
2015-12-05,31.82
2015-12-06,34.24
2015-12-07,33.57
2015-12-08,34.47
2015-12-09,58.53
2015-12-10,65.18
2015-12-11,50.79
2015-12-12,57.81
2015-12-13,80.36
2015-12-14,60.94
2015-12-15,49.68
2015-12-16,47.4
2015-12-17,60.53
2015-12-18,63.71
2015-12-19,69.89
2015-12-20,62.9
2015-12-21,69.56
2015-12-22,92.32
2015-12-23,105.3
2015-12-24,88.25
2015-12-25,82.6
2015-12-26,62.8
2015-12-27,65.71
2015-12-28,65.2
2015-12-29,56.03
2015-12-30,55.41
2015-12-31,47.7
2016-01-01,43.24
2016-01-02,38.55
2016-01-03,46.84
2016-01-04,46.75
2016-01-05,45.45
2016-01-06,51.02
2016-01-07,47.03
2016-01-08,54.95
2016-01-09,51.03
2016-01-10,56.66
2016-01-11,47.7
2016-01-12,52.03
2016-01-13,74.95
2016-01-14,82.02
2016-01-15,100.19
2016-01-16,118.11
2016-01-17,205.05
2016-01-18,337.86
2016-01-19,732.48
2016-01-20,770.2
2016-01-21,558.8
2016-01-22,463.52
2016-01-23,805.44
2016-01-24,791.18
2016-01-25,461.53
2016-01-26,297.94
2016-01-27,228.46
2016-01-28,196.51
2016-01-29,279.45
2016-01-30,839.35
2016-01-31,671.39
2016-02-01,313.27
2016-02-02,211.91
2016-02-03,167.63
2016-02-04,156.42
2016-02-05,134.82
2016-02-06,130.06
2016-02-07,125.89
2016-02-08,128.57
2016-02-09,137.22
2016-02-10,148.66
2016-02-11,155.97
2016-02-12,151.44
2016-02-13,160.92
2016-02-14,154.56
2016-02-15,144.01
2016-02-16,155.25
2016-02-17,148.46
2016-02-18,160.95
2016-02-19,162.26
2016-02-20,162.99
2016-02-21,166.09
2016-02-22,158.52
2016-02-23,133.1
2016-02-24,114.06
2016-02-25,111.73
2016-02-26,102.33
2016-02-27,117.1
2016-02-28,104.3
2016-02-29,106.43
2016-03-01,87.81
2016-03-02,99.11
2016-03-03,94.47
2016-03-04,93.8
2016-03-05,97.6
2016-03-06,189.7
2016-03-07,436.95
2016-03-08,358.16
2016-03-09,264.83
2016-03-10,270.41
2016-03-11,341.74
2016-03-12,302.33
2016-03-13,262.91
2016-03-14,330.08
2016-03-15,332.57
2016-03-16,250.32
2016-03-17,159.89
2016-03-18,129.25
2016-03-19,119.66
2016-03-20,120.26
2016-03-21,116.3
2016-03-22,129.88
2016-03-23,130.14
2016-03-24,132.96
2016-03-25,132.2
2016-03-26,127.86
2016-03-27,112.96
2016-03-28,105.99
2016-03-29,97.84
2016-03-30,97.76
2016-03-31,93.76
2016-04-01,84.35
2016-04-02,23.95
2016-04-03,44.47
2016-04-04,90.19
2016-04-05,59.14
2016-04-06,87.5
2016-04-07,90.65
2016-04-08,92.88
2016-04-09,99.64
2016-04-10,99.88
2016-04-11,46.2
2016-04-12,4.9
2016-04-13,5.53
2016-04-14,5.27
2016-04-15,33.67
2016-04-16,73.13
2016-04-17,76.78
2016-04-18,82.54
2016-04-19,80.5
2016-04-20,82.78
2016-04-21,87.49
2016-04-22,88.26
2016-04-23,55.28
2016-04-24,70.01
2016-04-25,68.4
2016-04-26,48.21
2016-04-27,63.02
2016-04-28,71.99
2016-04-29,77.67
2016-04-30,74.63
2016-05-01,117.84
2016-05-02,105.78
2016-05-03,84.12
2016-05-04,89.19
2016-05-05,100.33
2016-05-06,94.73
2016-05-07,106.81
2016-05-08,120.17
2016-05-09,106.75
2016-05-10,98.29
2016-05-11,75.59
2016-05-12,68.28
2016-05-13,38.68
2016-05-14,72.8
2016-05-15,109.41
2016-05-16,93.65
2016-05-17,86.73
2016-05-18,82.28
2016-05-19,81.68
2016-05-20,114.55
2016-05-21,119.55
2016-05-22,146.01
2016-05-23,173.94
2016-05-24,145.9
2016-05-25,139.19
2016-05-26,106.77
2016-05-27,91.38
2016-05-28,82.67
2016-05-29,81.44
2016-05-30,64.17
2016-05-31,27.7
2016-06-01,39.93
2016-06-02,26.13
2016-06-03,23.77
2016-06-04,28.36
2016-06-05,41.44
2016-06-06,36.43
2016-06-07,38.0
2016-06-08,48.99
2016-06-09,62.86
2016-06-10,51.53
2016-06-11,70.33
2016-06-12,64.72
2016-06-13,90.76
2016-06-14,85.98
2016-06-15,71.66
2016-06-16,69.46
2016-06-17,72.1
2016-06-18,143.81
2016-06-19,185.4
2016-06-20,178.44
2016-06-21,150.26
2016-06-22,92.84
2016-06-23,101.92
2016-06-24,121.3
2016-06-25,109.94
2016-06-26,101.79
2016-06-27,95.79
2016-06-28,79.9
2016-06-29,65.97
2016-06-30,60.8
2016-07-01,72.93
2016-07-02,61.73
2016-07-03,54.15
2016-07-04,74.53
2016-07-05,71.18
2016-07-06,91.08
2016-07-07,82.2
2016-07-08,97.21
2016-07-09,89.89
2016-07-10,86.21
2016-07-11,91.26
2016-07-12,81.94
2016-07-13,95.87
2016-07-14,92.34
2016-07-15,84.56
2016-07-16,72.19
2016-07-17,63.29
2016-07-18,63.86
2016-07-19,71.49
2016-07-20,61.95
2016-07-21,68.3
2016-07-22,71.87
2016-07-23,73.68
2016-07-24,79.9
2016-07-25,78.83
2016-07-26,84.73
2016-07-27,74.96
2016-07-28,78.64
2016-07-29,73.62
2016-07-30,65.52
2016-07-31,62.3
2016-08-01,59.68
2016-08-02,56.86
2016-08-03,69.34
2016-08-04,70.5
2016-08-05,78.56
2016-08-06,73.51
2016-08-07,68.4
2016-08-08,64.28
2016-08-09,60.31
2016-08-10,54.68
2016-08-11,63.77
2016-08-12,55.68
2016-08-13,56.18
2016-08-14,74.85
2016-08-15,58.49
2016-08-16,69.45
2016-08-17,71.5
2016-08-18,77.24
2016-08-19,62.8
2016-08-20,53.44
2016-08-21,53.78
2016-08-22,60.07
2016-08-23,62.97
2016-08-24,63.95
2016-08-25,68.79
2016-08-26,56.19
2016-08-27,65.39
2016-08-28,78.14
2016-08-29,78.09
2016-08-30,75.98
2016-08-31,76.85
2016-09-01,77.61
2016-09-02,76.33
2016-09-03,63.22
2016-09-04,73.9
2016-09-05,88.63
2016-09-06,71.17
2016-09-07,54.1
2016-09-08,68.84
2016-09-09,58.98
2016-09-10,69.35
2016-09-11,82.07
2016-09-12,89.05
2016-09-13,69.72
2016-09-14,63.75
2016-09-15,64.41
2016-09-16,71.4
2016-09-17,49.43
2016-09-18,68.02
2016-09-19,87.25
2016-09-20,90.95
2016-09-21,83.95
2016-09-22,95.74
2016-09-23,98.35
2016-09-24,111.5
2016-09-25,127.61
2016-09-26,118.64
2016-09-27,106.03
2016-09-28,105.93
2016-09-29,112.41
2016-09-30,111.49
2016-10-01,103.67
2016-10-02,99.0
2016-10-03,118.8
2016-10-04,121.86
2016-10-05,104.32
2016-10-06,132.87
2016-10-07,145.87
2016-10-08,105.88
2016-10-09,99.2
2016-10-10,87.03
2016-10-11,84.17
2016-10-12,74.73
2016-10-13,81.26
2016-10-14,129.56
2016-10-15,101.28
2016-10-16,107.44
2016-10-17,101.72
2016-10-18,93.88
2016-10-19,74.28
2016-10-20,72.68
2016-10-21,76.58
2016-10-22,64.54
2016-10-23,57.84
2016-10-24,31.02
2016-10-25,3.76
2016-10-26,1.16
2016-10-27,0.0
2016-10-28,0.0
2016-10-29,0.0
2016-10-30,0.0
2016-10-31,0.0
2016-11-01,0.0
2016-11-02,0.0
2016-11-03,0.0
2016-11-04,0.0
2016-11-05,0.0
2016-11-06,0.0
2016-11-07,0.0
2016-11-08,0.0
2016-11-09,0.0
2016-11-10,0.0
2016-11-11,0.0
2016-11-12,0.0
2016-11-13,0.0
2016-11-14,0.0
2016-11-15,0.0
2016-11-16,0.0
2016-11-17,0.0
2016-11-18,0.0
2016-11-19,0.0
2016-11-20,0.0
2016-11-21,40.49
2016-11-22,66.21
2016-11-23,66.56
2016-11-24,63.35
2016-11-25,69.54
2016-11-26,100.13
2016-11-27,98.73
2016-11-28,94.63
2016-11-29,91.02
2016-11-30,79.85
2016-12-01,81.71
2016-12-02,72.49
2016-12-03,62.61
2016-12-04,65.85
2016-12-05,61.38
2016-12-06,65.07
2016-12-07,53.03
2016-12-08,56.43
2016-12-09,50.6
2016-12-10,73.94
2016-12-11,100.13
2016-12-12,112.03
2016-12-13,70.53
2016-12-14,93.96
2016-12-15,271.17
2016-12-16,652.3
2016-12-17,465.46
2016-12-18,173.85
2016-12-19,57.57
2016-12-20,35.94
2016-12-21,30.61
2016-12-22,34.79
2016-12-23,48.14
2016-12-24,44.28
2016-12-25,42.16
2016-12-26,39.97
2016-12-27,36.23
2016-12-28,39.3
2016-12-29,58.15
2016-12-30,65.76
2016-12-31,53.16
2017-01-01,55.75
2017-01-02,45.85
2017-01-03,40.2
2017-01-04,41.72
2017-01-05,33.89
2017-01-06,35.65
2017-01-07,48.23
2017-01-08,84.74
2017-01-09,91.85
2017-01-10,294.92
2017-01-11,701.94
2017-01-12,715.16
2017-01-13,428.47
2017-01-14,252.74
2017-01-15,161.81
2017-01-16,128.28
2017-01-17,112.93
2017-01-18,123.78
2017-01-19,144.15
2017-01-20,155.56
2017-01-21,142.85
2017-01-22,130.87
2017-01-23,119.41
2017-01-24,101.91
2017-01-25,89.39
2017-01-26,96.51
2017-01-27,89.37
2017-01-28,79.25
2017-01-29,82.19
2017-01-30,73.9
2017-01-31,80.49
2017-02-01,76.03
2017-02-02,82.7
2017-02-03,345.41
2017-02-04,1044.68
2017-02-05,1119.65
2017-02-06,954.39
2017-02-07,871.35
2017-02-08,1077.13
2017-02-09,1362.77
2017-02-10,1688.8
2017-02-11,1329.01
2017-02-12,728.39
2017-02-13,475.47
2017-02-14,369.26
2017-02-15,299.31
2017-02-16,311.26
2017-02-17,433.06
2017-02-18,492.46
2017-02-19,838.73
2017-02-20,660.65
2017-02-21,499.41
2017-02-22,819.46
2017-02-23,776.68
2017-02-24,432.21
2017-02-25,339.3
2017-02-26,310.89
2017-02-27,277.46
2017-02-28,265.6
2017-03-01,237.76
2017-03-02,222.9
2017-03-03,225.76
2017-03-04,223.17
2017-03-05,258.09
2017-03-06,262.59
2017-03-07,243.96
2017-03-08,233.12
2017-03-09,316.03
2017-03-10,516.39
2017-03-11,461.91
2017-03-12,405.1
2017-03-13,355.49
2017-03-14,312.4
2017-03-15,295.21
2017-03-16,298.3
2017-03-17,314.73
2017-03-18,318.5
2017-03-19,290.88
2017-03-20,311.44
2017-03-21,338.32
2017-03-22,327.78
2017-03-23,323.78
2017-03-24,296.07
2017-03-25,259.05
2017-03-26,239.35
2017-03-27,243.53
2017-03-28,261.22
2017-03-29,242.62
2017-03-30,286.08
2017-03-31,473.41
2017-04-01,395.57
2017-04-02,272.76
2017-04-03,241.34
2017-04-04,196.94
2017-04-05,197.33
2017-04-06,213.73
2017-04-07,187.16
2017-04-08,226.69
2017-04-09,393.52
2017-04-10,377.92
2017-04-11,313.77
2017-04-12,220.27
2017-04-13,195.11
2017-04-14,261.1
2017-04-15,420.13
2017-04-16,322.41
2017-04-17,270.81
2017-04-18,239.38
2017-04-19,223.14
2017-04-20,215.8
2017-04-21,234.32
2017-04-22,235.83
2017-04-23,217.79
2017-04-24,208.02
2017-04-25,197.57
2017-04-26,198.59
2017-04-27,234.23
2017-04-28,262.78
2017-04-29,272.53
2017-04-30,255.74
2017-05-01,230.67
2017-05-02,209.76
2017-05-03,212.79
2017-05-04,201.98
2017-05-05,161.39
2017-05-06,71.94
2017-05-07,121.99
2017-05-08,112.17
2017-05-09,81.48
2017-05-10,105.39
2017-05-11,1.12
2017-05-12,0.65
2017-05-13,5.01
2017-05-14,74.06
2017-05-15,76.12
2017-05-16,66.66
2017-05-17,75.78
2017-05-18,50.42
2017-05-19,13.97
2017-05-20,51.52
2017-05-21,62.42
2017-05-22,77.21
2017-05-23,35.85